DLH422 EDDF-KBOS

Flight info

Callsign DLH422
Flight time N/A
Altitude 36000
Route OBOKA3M/25C OBOKA Z29 TORNU DCT BATAK DCT GALSO Q63 ERING L179 UGBET Q60 OKSAW DCT BIBPE DCT FELCA DCT FADZU DCT OFSOX DCT SLANY DCT TOBOR/M082F380 NATC ELSIR/N0461F380 DCT TUSKY DCT EURRO OOSHN5
Aircraft A346/H-SDE2E3FGHIJ3J4J5M1RWXY/LB1D1

Departure

Time 2026-05-06 19:07
Airport Frankfurt Main Airport (EDDF)

Arrival

Time N/A
Airport Boston Logan International Airport (KBOS)
Time Latitude Longitude Altitude Speed Heading
2026-05-06 17:57 50.04749 8.56393 364 ft 0 kts 340°
2026-05-06 18:50 50.04748 8.56393 337 ft 1 kts 340°
2026-05-06 18:50 50.04729 8.56404 365 ft 3 kts 338°
2026-05-06 18:50 50.04709 8.56418 366 ft 3 kts 332°
2026-05-06 18:50 50.04690 8.56436 371 ft 3 kts 321°
2026-05-06 18:51 50.04676 8.56458 364 ft 3 kts 302°
2026-05-06 18:51 50.04668 8.56481 369 ft 3 kts 302°
2026-05-06 18:51 50.04658 8.56499 371 ft 3 kts 332°
2026-05-06 18:51 50.04646 8.56505 370 ft 3 kts
2026-05-06 18:52 50.04636 8.56500 368 ft 0 kts 25°
2026-05-06 18:52 50.04646 8.56503 369 ft 3 kts
2026-05-06 18:52 50.04657 8.56496 368 ft 3 kts 324°
2026-05-06 18:52 50.04665 8.56476 370 ft 3 kts 292°
2026-05-06 18:53 50.04667 8.56448 370 ft 3 kts 268°
2026-05-06 18:53 50.04663 8.56416 368 ft 3 kts 252°
2026-05-06 18:53 50.04662 8.56413 368 ft 0 kts 250°
2026-05-06 18:56 50.04660 8.56408 364 ft 2 kts 250°
2026-05-06 18:56 50.04653 8.56379 369 ft 4 kts 250°
2026-05-06 18:57 50.04646 8.56349 368 ft 3 kts 250°
2026-05-06 18:57 50.04635 8.56304 365 ft 6 kts 249°
2026-05-06 18:57 50.04618 8.56234 365 ft 8 kts 249°
2026-05-06 18:57 50.04596 8.56140 369 ft 10 kts 249°
2026-05-06 18:58 50.04569 8.56029 370 ft 11 kts 249°
2026-05-06 18:58 50.04540 8.55969 367 ft 7 kts 205°
2026-05-06 18:58 50.04487 8.55941 370 ft 8 kts 198°
2026-05-06 18:58 50.04428 8.55913 370 ft 10 kts 192°
2026-05-06 18:59 50.04352 8.55927 369 ft 11 kts 162°
2026-05-06 18:59 50.04285 8.55960 364 ft 9 kts 172°
2026-05-06 18:59 50.04225 8.55926 366 ft 7 kts 207°
2026-05-06 18:59 50.04170 8.55931 367 ft 9 kts 163°
2026-05-06 19:00 50.04105 8.55969 363 ft 10 kts 151°
2026-05-06 19:00 50.04078 8.56062 364 ft 9 kts 80°
2026-05-06 19:00 50.04099 8.56160 364 ft 10 kts 71°
2026-05-06 19:00 50.04115 8.56232 364 ft 10 kts 69°
2026-05-06 19:01 50.04151 8.56378 365 ft 11 kts 69°
2026-05-06 19:01 50.04180 8.56497 370 ft 12 kts 69°
2026-05-06 19:01 50.04210 8.56625 367 ft 13 kts 70°
2026-05-06 19:01 50.04241 8.56757 372 ft 13 kts 70°
2026-05-06 19:02 50.04273 8.56890 371 ft 14 kts 69°
2026-05-06 19:02 50.04308 8.57034 372 ft 14 kts 69°
2026-05-06 19:02 50.04344 8.57181 372 ft 15 kts 69°
2026-05-06 19:02 50.04380 8.57334 373 ft 12 kts 70°
2026-05-06 19:03 50.04387 8.57364 373 ft 0 kts 70°
2026-05-06 19:03 50.04391 8.57384 373 ft 3 kts 70°
2026-05-06 19:03 50.04403 8.57434 373 ft 7 kts 70°
2026-05-06 19:03 50.04425 8.57526 371 ft 11 kts 70°
2026-05-06 19:04 50.04452 8.57640 375 ft 12 kts 69°
2026-05-06 19:04 50.04484 8.57770 376 ft 14 kts 69°
2026-05-06 19:04 50.04520 8.57918 373 ft 15 kts 69°
2026-05-06 19:04 50.04559 8.58084 374 ft 17 kts 70°
2026-05-06 19:05 50.04599 8.58254 377 ft 14 kts 70°
2026-05-06 19:05 50.04634 8.58402 378 ft 14 kts 70°
2026-05-06 19:05 50.04652 8.58519 381 ft 10 kts 102°
2026-05-06 19:05 50.04599 8.58585 381 ft 10 kts 156°
2026-05-06 19:06 50.04549 8.58620 382 ft 6 kts 156°
2026-05-06 19:06 50.04514 8.58626 382 ft 5 kts 216°
2026-05-06 19:06 50.04482 8.58562 384 ft 11 kts 241°
2026-05-06 19:06 50.04421 8.58315 379 ft 49 kts 250°
2026-05-06 19:07 50.04230 8.57518 374 ft 106 kts 250°
2026-05-06 19:07 50.04029 8.56674 368 ft 139 kts 249°
2026-05-06 19:07 50.03493 8.54455 477 ft 179 kts 251°
2026-05-06 19:07 50.03034 8.52653 1046 ft 177 kts 250°
2026-05-06 19:08 50.02567 8.50875 1580 ft 179 kts 241°
2026-05-06 19:08 50.01627 8.49608 2028 ft 186 kts 205°
2026-05-06 19:08 50.00370 8.48964 2303 ft 195 kts 199°
2026-05-06 19:08 49.99024 8.48367 2562 ft 208 kts 199°
2026-05-06 19:09 49.97614 8.47744 3047 ft 212 kts 199°
2026-05-06 19:09 49.96229 8.47121 3714 ft 208 kts 199°
2026-05-06 19:09 49.94834 8.46488 4163 ft 214 kts 199°
2026-05-06 19:09 49.93364 8.45809 4413 ft 227 kts 199°
2026-05-06 19:10 49.91858 8.44890 4704 ft 237 kts 217°
2026-05-06 19:10 49.90707 8.43078 5300 ft 235 kts 238°
2026-05-06 19:10 49.89860 8.40916 6013 ft 234 kts 240°
2026-05-06 19:10 49.89049 8.38705 6570 ft 236 kts 246°
2026-05-06 19:11 49.88609 8.36234 7099 ft 241 kts 264°
2026-05-06 19:11 49.88639 8.33555 7476 ft 256 kts 273°
2026-05-06 19:11 49.88800 8.30734 7886 ft 267 kts 274°
2026-05-06 19:11 49.89050 8.27857 8470 ft 271 kts 283°
2026-05-06 19:12 49.89746 8.25162 9132 ft 276 kts 298°
2026-05-06 19:12 49.90841 8.22691 9794 ft 279 kts 304°
2026-05-06 19:12 49.92024 8.20251 10276 ft 288 kts 304°
2026-05-06 19:12 49.93280 8.17731 10566 ft 303 kts 308°
2026-05-06 19:13 49.94743 8.15234 10826 ft 320 kts 313°
2026-05-06 19:13 49.96425 8.12836 11095 ft 337 kts 317°
2026-05-06 19:13 49.98247 8.10403 11354 ft 353 kts 317°
2026-05-06 19:13 50.00170 8.07855 11627 ft 369 kts 318°
2026-05-06 19:14 50.02147 8.05232 11861 ft 375 kts 317°
2026-05-06 19:14 50.04120 8.02605 12131 ft 378 kts 317°
2026-05-06 19:14 50.06126 7.99925 12401 ft 380 kts 317°
2026-05-06 19:14 50.08133 7.97233 12654 ft 381 kts 317°
2026-05-06 19:15 50.10149 7.94523 12842 ft 383 kts 317°
2026-05-06 19:15 50.12164 7.91810 12830 ft 382 kts 317°
2026-05-06 19:15 50.14175 7.89099 12835 ft 382 kts 317°
2026-05-06 19:15 50.16192 7.86380 12843 ft 383 kts 317°
2026-05-06 19:16 50.18207 7.83658 12839 ft 383 kts 317°
2026-05-06 19:16 50.20219 7.80933 12852 ft 382 kts 317°
2026-05-06 19:16 50.22230 7.78206 13079 ft 381 kts 317°
2026-05-06 19:16 50.24256 7.75633 13331 ft 383 kts 322°
2026-05-06 19:17 50.26492 7.73342 13617 ft 386 kts 328°
2026-05-06 19:17 50.28900 7.71411 13863 ft 389 kts 333°
2026-05-06 19:17 50.31409 7.69674 14276 ft 396 kts 335°
2026-05-06 19:17 50.33943 7.67971 14983 ft 395 kts 335°
2026-05-06 19:18 50.36476 7.66261 15636 ft 398 kts 334°
2026-05-06 19:18 50.39025 7.64522 16236 ft 401 kts 334°
2026-05-06 19:18 50.41591 7.62764 16835 ft 405 kts 334°
2026-05-06 19:18 50.44184 7.60981 17426 ft 408 kts 334°
2026-05-06 19:19 50.46798 7.59179 18011 ft 412 kts 334°
2026-05-06 19:19 50.49435 7.57358 18560 ft 416 kts 334°
2026-05-06 19:19 50.52052 7.55549 19055 ft 419 kts 334°
2026-05-06 19:19 50.54692 7.53579 19567 ft 421 kts 331°
2026-05-06 19:20 50.57271 7.51366 20045 ft 423 kts 327°
2026-05-06 19:20 50.59783 7.48921 20544 ft 426 kts 325°
2026-05-06 19:20 50.62279 7.46373 21036 ft 429 kts 325°
2026-05-06 19:20 50.64782 7.43783 21511 ft 432 kts 326°
2026-05-06 19:21 50.67302 7.41183 22031 ft 435 kts 326°
2026-05-06 19:21 50.69849 7.38566 22502 ft 438 kts 326°
2026-05-06 19:21 50.72337 7.35757 22933 ft 441 kts 318°
2026-05-06 19:21 50.74512 7.32305 23398 ft 442 kts 308°
2026-05-06 19:22 50.76262 7.28383 23798 ft 444 kts 299°
2026-05-06 19:22 50.77735 7.24044 24212 ft 446 kts 296°
2026-05-06 19:22 50.79144 7.19656 24595 ft 449 kts 295°
2026-05-06 19:22 50.80555 7.15225 24977 ft 452 kts 295°
2026-05-06 19:23 50.81981 7.10774 25353 ft 455 kts 296°
2026-05-06 19:23 50.82933 7.07817 25616 ft 456 kts 296°
2026-05-06 19:23 50.84383 7.03327 26006 ft 459 kts 296°
2026-05-06 19:23 50.85851 6.98777 26345 ft 462 kts 296°
2026-05-06 19:24 50.87320 6.94232 26697 ft 465 kts 296°
2026-05-06 19:24 50.88796 6.89641 27057 ft 468 kts 296°
2026-05-06 19:24 50.90293 6.85000 27423 ft 471 kts 295°
2026-05-06 19:24 50.91782 6.80358 27814 ft 472 kts 296°
2026-05-06 19:25 50.93266 6.75722 28339 ft 471 kts 296°
2026-05-06 19:25 50.94744 6.71097 28928 ft 469 kts 296°
2026-05-06 19:25 50.96216 6.66479 29460 ft 467 kts 296°
2026-05-06 19:25 50.97684 6.61876 29958 ft 466 kts 295°
2026-05-06 19:26 50.99152 6.57255 30400 ft 466 kts 295°
2026-05-06 19:26 51.00591 6.52716 30857 ft 464 kts 295°
2026-05-06 19:26 51.02043 6.48128 31290 ft 463 kts 295°
2026-05-06 19:26 51.03487 6.43559 31709 ft 462 kts 295°
2026-05-06 19:27 51.04928 6.38990 32133 ft 461 kts 295°
2026-05-06 19:27 51.06361 6.34442 32558 ft 460 kts 295°
2026-05-06 19:27 51.07790 6.29894 32974 ft 459 kts 295°
2026-05-06 19:27 51.09215 6.25351 33382 ft 458 kts 295°
2026-05-06 19:28 51.10634 6.20816 33785 ft 457 kts 295°
2026-05-06 19:28 51.12029 6.16272 34130 ft 455 kts 293°
2026-05-06 19:28 51.13279 6.11642 34418 ft 455 kts 290°
2026-05-06 19:28 51.14367 6.06904 34666 ft 455 kts 287°
2026-05-06 19:29 51.15286 6.02079 34859 ft 456 kts 283°
2026-05-06 19:29 51.16096 5.97203 35040 ft 457 kts 283°
2026-05-06 19:29 51.16959 5.92307 35243 ft 459 kts 285°
2026-05-06 19:29 51.17963 5.87529 35461 ft 461 kts 289°
2026-05-06 19:30 51.19144 5.82763 35657 ft 463 kts 292°
2026-05-06 19:30 51.20494 5.78090 35856 ft 464 kts 295°
2026-05-06 19:30 51.22004 5.73527 35906 ft 466 kts 298°
2026-05-06 19:31 51.25316 5.64632 35919 ft 466 kts 300°
2026-05-06 19:31 51.30343 5.51318 35922 ft 466 kts 299°
2026-05-06 19:32 51.33655 5.42477 35937 ft 466 kts 299°
2026-05-06 19:32 51.36979 5.33564 35936 ft 466 kts 299°
2026-05-06 19:33 51.40290 5.24647 35946 ft 465 kts 299°
2026-05-06 19:33 51.43595 5.15718 35941 ft 465 kts 299°
2026-05-06 19:34 51.46893 5.06780 35948 ft 465 kts 299°
2026-05-06 19:34 51.50150 4.97919 35939 ft 464 kts 299°
2026-05-06 19:35 51.53339 4.88912 35940 ft 463 kts 296°
2026-05-06 19:35 51.55949 4.79457 35939 ft 462 kts 289°
2026-05-06 19:36 51.57876 4.69612 35936 ft 461 kts 283°
2026-05-06 19:36 51.59133 4.59573 35943 ft 460 kts 279°
2026-05-06 19:37 51.60196 4.49417 35941 ft 460 kts 278°
2026-05-06 19:37 51.61250 4.39244 35939 ft 460 kts 278°
2026-05-06 19:38 51.62300 4.29072 35943 ft 460 kts 278°
2026-05-06 19:38 51.63336 4.18971 35940 ft 460 kts 278°
2026-05-06 19:39 51.64371 4.08798 35943 ft 460 kts 278°
2026-05-06 19:39 51.65258 3.99996 35940 ft 460 kts 278°
2026-05-06 19:40 50.04756 8.56388 35940 ft 6 kts 340°
2026-05-06 19:42 50.04764 8.56384 368 ft 0 kts 340°
2026-05-06 19:42 51.60901 4.42617 35937 ft 460 kts 278°
2026-05-06 19:43 51.61936 4.32605 35943 ft 460 kts 278°
2026-05-06 19:43 51.62981 4.22427 35942 ft 460 kts 278°
2026-05-06 19:44 51.64018 4.12249 35940 ft 460 kts 278°
2026-05-06 19:44 51.65050 4.02043 35951 ft 460 kts 278°
2026-05-06 19:45 51.66064 3.91925 35949 ft 460 kts 278°
2026-05-06 19:45 51.67074 3.81743 35947 ft 459 kts 278°
2026-05-06 19:46 51.68074 3.71581 35947 ft 459 kts 278°
2026-05-06 19:46 51.69067 3.61396 35956 ft 459 kts 278°
2026-05-06 19:47 51.70045 3.51288 35950 ft 458 kts 278°
2026-05-06 19:47 51.71019 3.41112 35953 ft 458 kts 278°
2026-05-06 19:48 51.71981 3.30943 35960 ft 456 kts 278°
2026-05-06 19:48 51.72595 3.20803 35954 ft 452 kts 272°
2026-05-06 19:49 51.72528 3.10631 35959 ft 454 kts 266°
2026-05-06 19:49 51.71831 3.00577 35965 ft 451 kts 262°
2026-05-06 19:50 51.71077 2.91821 35968 ft 456 kts 262°
2026-05-06 19:50 51.70197 2.81711 35971 ft 454 kts 262°
2026-05-06 19:51 52.01687 -5.08895 35977 ft 451 kts 279°
2026-05-06 19:51 52.02093 -5.12659 36945 ft 458 kts 281°
2026-05-06 19:51 52.02749 -5.17749 36309 ft 462 kts 285°
2026-05-06 19:52 52.03579 -5.22786 36032 ft 461 kts 288°
2026-05-06 19:52 52.04554 -5.27765 36014 ft 462 kts 290°
2026-05-06 19:52 52.06578 -5.37709 36004 ft 463 kts 290°
2026-05-06 19:53 52.08576 -5.47590 36008 ft 463 kts 290°
2026-05-06 19:53 52.15012 -5.80376 36006 ft 464 kts 286°
2026-05-06 19:54 52.16327 -5.90711 36003 ft 466 kts 280°